Flugschule und Pilotenausbildung

Wir bieten eine professionelle und umfassende Ausbildung durch unsere erfahrenen Piloten, Fluglehrer und Prüfer, die Sie zum Erwerb der folgenden Lizenzen führen:

 

Schulungsräume

Je nach Teilnehmerzahl findet der Unterricht in zwei vollausgestatteten Räumen statt.

 Bis 5 Teilnehmer in Feldgeding bei Dachau:

Schulungsraum Feldgeding

Bei 6 oder mehr Teilnehmern in Gröbenzell:

Schulungsraum Gröbenzell

Flugzeuge

Wir schulen auf unseren eigenen Flugzeugen. Mehr Informationen zu unseren Flugzeugen finden Sie hier ...

 

Flugwetter Augsburg

[source: ADDS]
METAR
EDMA 242320Z AUTO VRB01KT 5000 // BKN038/// BKN058/// 04/03 Q1021 =
TAF EDMA 241700Z 2418/2503 33009KT 9999 SCT040 BECMG 2421/2424 28004KT
TAF
TAF EDMA 241700Z 2418/2503 33009KT 9999 SCT040 BECMG 2421/2424 28004KT =
Cookies erleichtern die Bereitstellung unserer Dienste. Mit der Nutzung unserer Dienste erklären Sie sich damit einverstanden, dass wir Cookies verwenden.
Weitere Informationen Ok